Regional Weather Roundup
Issued by NWS

Home | Current Version | Previous Version | Graphics & Text | Print | Product List | Glossary Off
Versions: 1 2 3 4 5 6 7 8 9 10 11 12 13 14 15 16 17 18 19 20 21 22 23 24 25 26 27 28 29 30 31 32 33 34 35 36 37 38 39 40 41 42 43 44 45 46 47 48 49 50

000
ASUS43 KTOP 262159
RWRKS

WEATHER ROUNDUP FOR KANSAS
NATIONAL WEATHER SERVICE GOODLAND KS
500 PM CDT MON JUN 26 2017

NOTE:  "FAIR" INDICATES FEW OR NO CLOUDS BELOW 12,000 FEET WITH NO
SIGNIFICANT WEATHER AND/OR OBSTRUCTIONS TO VISIBILITY.

KSZ001>006-013>018-027>032-041>047-262300-
NORTHWEST KANSAS

CITY           SKY/WX    TMP DP  RH WIND       PRES   REMARKS
GOODLAND       MOSUNNY   82  55  39 CALM      30.11F
HAYS           MOSUNNY   82  63  52 NE3       30.07F
HILL CITY      MOSUNNY   81  60  48 S3        30.08F
RUSSELL        MOSUNNY   83  59  44 CALM      30.04F
$$

KSZ061>065-074>080-084>089-262300-
SOUTHWEST KANSAS

CITY           SKY/WX    TMP DP  RH WIND       PRES   REMARKS
DODGE CITY     SUNNY     84  61  45 VRB5      30.08F
ELKHART          N/A     86  53  32 S2          N/A
GARDEN CITY    SUNNY     84  60  44 SE7       30.08F
GREAT BEND     SUNNY     85  58  39 VRB6      30.05
LIBERAL        PTSUNNY   88  59  37 CALM      30.08F
$$

KSZ066>073-081>083-090>101-262300-
SOUTHEAST KANSAS

CITY           SKY/WX    TMP DP  RH WIND       PRES   REMARKS
CHANUTE        PTSUNNY   76  64  66 NE13G21   30.08F
COFFEYVILLE    PTSUNNY   85  61  44 CALM      30.05F
HUTCHINSON     MOSUNNY   88  56  33 SW9       30.04F
MEDICINE LODGE   N/A     87  60  40 SE6       30.03F
NEWTON         PTSUNNY   85  58  39 SW9       30.05F
PARSONS        PTSUNNY   87  60  40 VRB7      30.07F
WICHITA INTL   MOSUNNY   87  58  37 VRB6      30.03F
WICHITA JABRA  MOSUNNY   84  59  42 S7G16     30.04F
WINFIELD       MOSUNNY   84  59  42 CALM      30.06F
$$

KSZ007>012-019>026-033>040-048>060-102>105-262300-
NORTHEAST KANSAS

CITY           SKY/WX    TMP DP  RH WIND       PRES   REMARKS
CONCORDIA      MOSUNNY   81  61  50 E7        30.06F
EMPORIA        MOSUNNY   81  62  52 SE13      30.06F
LAWRENCE       MOSUNNY   74  58  57 SE13      30.11F
MANHATTAN      MOSUNNY   79  61  53 E9        30.07F
OLATHE IND     SUNNY     71  55  56 SE13      30.13F
OLATHE EXE     SUNNY     70  54  56 SE10      30.12F
SALINA         MOSUNNY   88  59  37 SW7       30.03F
TOPEKA BILLARD PTSUNNY   76  59  55 E9        30.10F
TOPEKA FORBES  MOSUNNY   78  60  53 SE8       30.09F
$$



USA.gov is the U.S. government's official web portal to all federal, state and local government web resources and services.